Time,TemperatureF,DewpointF,PressureIn,WindDirection,WindDirectionDegrees,WindSpeedMPH,WindSpeedGustMPH,Humidity,HourlyPrecipIn,Conditions,Clouds,dailyrainin,SoftwareType,DateUTC
2013-02-19 00:03:00,42.3,25.0,30.20,SSE,158,10.0,22.0,50,0.00,,,0.00,weatherlink.com 1.10,2013-02-19 05:03:00,
2013-02-19 00:18:00,42.0,24.0,30.20,SE,140,12.0,20.0,50,0.00,,,0.00,weatherlink.com 1.10,2013-02-19 05:18:00,
2013-02-19 00:33:00,41.6,25.0,30.20,SE,135,6.0,15.0,51,0.00,,,0.00,weatherlink.com 1.10,2013-02-19 05:33:00,
2013-02-19 00:48:00,41.4,25.0,30.19,South,173,12.0,14.0,52,0.00,,,0.00,weatherlink.com 1.10,2013-02-19 05:48:00,
2013-02-19 01:03:00,41.3,25.0,30.17,South,188,8.0,20.0,52,0.00,,,0.00,weatherlink.com 1.10,2013-02-19 06:03:00,
2013-02-19 01:18:00,41.1,24.0,30.15,SSE,167,16.0,19.0,52,0.00,,,0.00,weatherlink.com 1.10,2013-02-19 06:18:00,
2013-02-19 01:33:00,41.1,24.0,30.15,SSW,203,7.0,25.0,52,0.00,,,0.00,weatherlink.com 1.10,2013-02-19 06:33:00,
2013-02-19 01:48:00,40.9,25.0,30.12,South,174,9.0,21.0,53,0.00,,,0.00,weatherlink.com 1.10,2013-02-19 06:48:00,
2013-02-19 02:03:00,40.6,24.0,30.12,SSE,158,6.0,14.0,53,0.00,,,0.00,weatherlink.com 1.10,2013-02-19 07:03:00,
2013-02-19 02:18:00,40.3,24.0,30.13,SE,142,12.0,24.0,53,0.00,,,0.00,weatherlink.com 1.10,2013-02-19 07:18:00,
2013-02-19 02:33:00,40.0,24.0,30.12,ESE,112,7.0,15.0,54,0.00,,,0.00,weatherlink.com 1.10,2013-02-19 07:33:00,
2013-02-19 02:48:00,39.7,24.0,30.11,SE,141,7.0,17.0,54,0.00,,,0.00,weatherlink.com 1.10,2013-02-19 07:48:00,
2013-02-19 03:03:00,39.9,24.0,30.11,South,170,10.0,21.0,53,0.00,,,0.00,weatherlink.com 1.10,2013-02-19 08:03:00,
2013-02-19 03:18:00,40.0,24.0,30.11,South,179,9.0,21.0,53,0.00,,,0.00,weatherlink.com 1.10,2013-02-19 08:18:00,
2013-02-19 03:33:00,40.1,24.0,30.12,SSE,166,13.0,18.0,53,0.00,,,0.00,weatherlink.com 1.10,2013-02-19 08:33:00,
2013-02-19 03:48:00,40.3,24.0,30.12,SSE,166,10.0,22.0,53,0.00,,,0.00,weatherlink.com 1.10,2013-02-19 08:48:00,
2013-02-19 04:03:00,40.4,24.0,30.12,SSE,153,13.0,16.0,52,0.00,,,0.00,weatherlink.com 1.10,2013-02-19 09:03:00,
2013-02-19 04:18:00,40.7,25.0,30.10,South,176,8.0,26.0,53,0.00,,,0.00,weatherlink.com 1.10,2013-02-19 09:18:00,
2013-02-19 04:33:00,40.5,25.0,30.10,SSE,153,6.0,13.0,54,0.00,,,0.00,weatherlink.com 1.10,2013-02-19 09:33:00,
2013-02-19 04:48:00,40.5,26.0,30.10,SW,214,8.0,16.0,57,0.00,,,0.00,weatherlink.com 1.10,2013-02-19 09:48:00,
2013-02-19 05:03:00,40.3,27.0,30.11,SSE,152,6.0,13.0,59,0.00,,,0.00,weatherlink.com 1.10,2013-02-19 10:03:00,
2013-02-19 05:18:00,40.3,27.0,30.11,South,173,3.0,9.0,60,0.00,,,0.00,weatherlink.com 1.10,2013-02-19 10:18:00,
2013-02-19 05:33:00,40.1,28.0,30.11,ESE,117,11.0,12.0,62,0.00,,,0.00,weatherlink.com 1.10,2013-02-19 10:33:00,
2013-02-19 05:49:00,39.8,32.0,30.11,SE,146,7.0,19.0,73,0.00,,,0.00,weatherlink.com 1.10,2013-02-19 10:49:00,
2013-02-19 06:04:00,38.5,33.0,30.09,SW,226,5.0,16.0,80,0.01,,,0.01,weatherlink.com 1.10,2013-02-19 11:04:00,
2013-02-19 06:19:00,37.3,33.0,30.09,South,172,5.0,10.0,84,0.01,,,0.01,weatherlink.com 1.10,2013-02-19 11:19:00,
2013-02-19 06:34:00,36.5,33.0,30.09,SSW,201,4.0,13.0,87,0.01,,,0.01,weatherlink.com 1.10,2013-02-19 11:34:00,
2013-02-19 06:49:00,36.3,33.0,30.08,WSW,246,5.0,12.0,89,0.02,,,0.02,weatherlink.com 1.10,2013-02-19 11:49:00,
2013-02-19 07:04:00,36.3,34.0,30.07,SSE,162,5.0,11.0,90,0.01,,,0.02,weatherlink.com 1.10,2013-02-19 12:04:00,
2013-02-19 07:19:00,36.5,34.0,30.06,SW,235,0.0,12.0,90,0.01,,,0.02,weatherlink.com 1.10,2013-02-19 12:19:00,
2013-02-19 07:34:00,36.8,34.0,30.06,South,181,9.0,10.0,89,0.01,,,0.02,weatherlink.com 1.10,2013-02-19 12:34:00,
2013-02-19 07:49:00,37.0,34.0,30.05,East,94,6.0,10.0,89,0.00,,,0.02,weatherlink.com 1.10,2013-02-19 12:49:00,
2013-02-19 08:04:00,37.2,34.0,30.04,SSE,158,7.0,9.0,89,0.00,,,0.02,weatherlink.com 1.10,2013-02-19 13:04:00,
2013-02-19 08:19:00,37.3,34.0,30.04,WSW,240,3.0,13.0,89,0.00,,,0.02,weatherlink.com 1.10,2013-02-19 13:19:00,
2013-02-19 08:34:00,37.5,35.0,30.03,SSE,149,4.0,13.0,89,0.00,,,0.02,weatherlink.com 1.10,2013-02-19 13:34:00,
2013-02-19 08:49:00,37.6,35.0,30.02,SSE,156,9.0,13.0,89,0.00,,,0.02,weatherlink.com 1.10,2013-02-19 13:49:00,
2013-02-19 09:04:00,38.0,35.0,30.02,SSE,150,2.0,14.0,89,0.00,,,0.02,weatherlink.com 1.10,2013-02-19 14:04:00,
2013-02-19 09:19:00,38.4,36.0,30.02,SE,143,6.0,12.0,89,0.00,,,0.02,weatherlink.com 1.10,2013-02-19 14:19:00,
2013-02-19 09:34:00,38.6,35.0,30.01,South,176,6.0,14.0,88,0.00,,,0.02,weatherlink.com 1.10,2013-02-19 14:34:00,
2013-02-19 09:49:00,38.9,36.0,30.02,SE,135,5.0,11.0,88,0.00,,,0.02,weatherlink.com 1.10,2013-02-19 14:49:00,
2013-02-19 10:04:00,39.5,36.0,30.01,South,190,3.0,13.0,88,0.00,,,0.02,weatherlink.com 1.10,2013-02-19 15:04:00,
2013-02-19 10:19:00,41.3,37.0,30.01,South,169,5.0,11.0,85,0.00,,,0.02,weatherlink.com 1.10,2013-02-19 15:19:00,
2013-02-19 10:34:00,41.4,37.0,30.01,SE,131,2.0,15.0,85,0.00,,,0.02,weatherlink.com 1.10,2013-02-19 15:34:00,
2013-02-19 10:49:00,42.2,38.0,30.00,SSW,205,5.0,10.0,84,0.00,,,0.02,weatherlink.com 1.10,2013-02-19 15:49:00,
2013-02-19 11:04:00,43.3,39.0,30.00,SE,131,2.0,9.0,83,0.00,,,0.02,weatherlink.com 1.10,2013-02-19 16:04:00,
2013-02-19 11:19:00,44.8,39.0,29.99,SSE,150,0.0,8.0,80,0.00,,,0.02,weatherlink.com 1.10,2013-02-19 16:19:00,
2013-02-19 11:34:00,46.9,40.0,29.99,SW,216,1.0,5.0,76,0.00,,,0.02,weatherlink.com 1.10,2013-02-19 16:34:00,
2013-02-19 11:49:00,48.3,40.0,29.97,SE,135,3.0,6.0,74,0.00,,,0.02,weatherlink.com 1.10,2013-02-19 16:49:00,
2013-02-19 12:04:00,48.9,40.0,29.96,SE,134,0.0,5.0,72,0.00,,,0.02,weatherlink.com 1.10,2013-02-19 17:04:00,
2013-02-19 12:20:00,49.3,40.0,29.96,SW,214,0.0,7.0,70,0.00,,,0.02,weatherlink.com 1.10,2013-02-19 17:20:00,
2013-02-19 12:35:00,50.1,38.0,29.96,WNW,294,3.0,17.0,64,0.00,,,0.02,weatherlink.com 1.10,2013-02-19 17:35:00,
2013-02-19 12:50:00,52.3,37.0,29.94,ESE,111,1.0,11.0,57,0.00,,,0.02,weatherlink.com 1.10,2013-02-19 17:50:00,
2013-02-19 13:05:00,51.7,40.0,29.93,NNE,12,10.0,12.0,65,0.00,,,0.02,weatherlink.com 1.10,2013-02-19 18:05:00,
2013-02-19 13:20:00,50.9,40.0,29.93,NNW,331,6.0,17.0,66,0.00,,,0.02,weatherlink.com 1.10,2013-02-19 18:20:00,
2013-02-19 13:35:00,50.2,40.0,29.92,NNW,346,10.0,14.0,67,0.00,,,0.02,weatherlink.com 1.10,2013-02-19 18:35:00,
2013-02-19 13:50:00,49.6,39.0,29.92,North,11,16.0,18.0,67,0.00,,,0.02,weatherlink.com 1.10,2013-02-19 18:50:00,
2013-02-19 14:05:00,49.0,40.0,29.91,North,8,7.0,14.0,70,0.00,,,0.02,weatherlink.com 1.10,2013-02-19 19:05:00,
2013-02-19 14:20:00,48.6,37.0,29.92,NNE,28,9.0,18.0,65,0.00,,,0.02,weatherlink.com 1.10,2013-02-19 19:20:00,
2013-02-19 14:35:00,48.8,37.0,29.91,NNE,33,7.0,13.0,63,0.00,,,0.02,weatherlink.com 1.10,2013-02-19 19:35:00,
2013-02-19 14:50:00,49.5,36.0,29.91,NE,47,2.0,11.0,59,0.00,,,0.02,weatherlink.com 1.10,2013-02-19 19:50:00,
2013-02-19 15:05:00,49.6,33.0,29.92,NNW,333,8.0,18.0,54,0.00,,,0.02,weatherlink.com 1.10,2013-02-19 20:05:00,
2013-02-19 15:20:00,49.8,32.0,29.91,NW,317,14.0,22.0,51,0.00,,,0.02,weatherlink.com 1.10,2013-02-19 20:20:00,
2013-02-19 15:35:00,49.2,32.0,29.92,NNE,20,6.0,18.0,51,0.00,,,0.02,weatherlink.com 1.10,2013-02-19 20:35:00,
2013-02-19 15:50:00,49.7,31.0,29.92,NNE,22,12.0,16.0,48,0.00,,,0.02,weatherlink.com 1.10,2013-02-19 20:50:00,
2013-02-19 16:05:00,48.8,31.0,29.93,NNE,27,10.0,21.0,51,0.00,,,0.02,weatherlink.com 1.10,2013-02-19 21:05:00,
2013-02-19 16:20:00,49.2,29.0,29.94,NE,48,10.0,27.0,45,0.00,,,0.02,weatherlink.com 1.10,2013-02-19 21:20:00,
2013-02-19 16:35:00,48.9,28.0,29.95,NNE,14,13.0,27.0,44,0.00,,,0.02,weatherlink.com 1.10,2013-02-19 21:35:00,
2013-02-19 16:50:00,48.2,27.0,29.96,NNE,20,13.0,23.0,44,0.00,,,0.02,weatherlink.com 1.10,2013-02-19 21:50:00,
2013-02-19 17:05:00,48.1,23.0,29.97,North,352,13.0,26.0,38,0.00,,,0.02,weatherlink.com 1.10,2013-02-19 22:05:00,
2013-02-19 17:20:00,47.8,23.0,29.98,North,355,16.0,31.0,38,0.00,,,0.02,weatherlink.com 1.10,2013-02-19 22:20:00,
2013-02-19 17:35:00,46.9,19.0,29.98,North,353,16.0,22.0,33,0.00,,,0.02,weatherlink.com 1.10,2013-02-19 22:35:00,
2013-02-19 17:50:00,46.1,17.0,30.00,NNW,340,20.0,30.0,31,0.00,,,0.02,weatherlink.com 1.10,2013-02-19 22:50:00,
2013-02-19 18:05:00,45.5,18.0,30.01,North,5,13.0,19.0,34,0.00,,,0.02,weatherlink.com 1.10,2013-02-19 23:05:00,
2013-02-19 18:20:00,44.9,18.0,30.01,North,354,17.0,20.0,34,0.00,,,0.02,weatherlink.com 1.10,2013-02-19 23:20:00,
2013-02-19 18:35:00,44.5,16.0,30.02,NNW,345,7.0,23.0,32,0.00,,,0.02,weatherlink.com 1.10,2013-02-19 23:35:00,
2013-02-19 18:50:00,43.7,18.0,30.03,NNW,333,6.0,15.0,36,0.00,,,0.02,weatherlink.com 1.10,2013-02-19 23:50:00,
2013-02-19 19:20:00,42.7,17.0,30.04,NNW,340,10.0,17.0,36,0.00,,,0.02,weatherlink.com 1.10,2013-02-20 00:20:00,
2013-02-19 19:35:00,42.4,16.0,30.05,NNW,340,12.0,20.0,35,0.00,,,0.02,weatherlink.com 1.10,2013-02-20 00:35:00,
2013-02-19 19:50:00,42.0,17.0,30.05,NNW,348,15.0,21.0,37,0.00,,,0.02,weatherlink.com 1.10,2013-02-20 00:50:00,
2013-02-19 20:05:00,41.7,16.0,30.05,NNW,339,20.0,21.0,35,0.00,,,0.02,weatherlink.com 1.10,2013-02-20 01:05:00,
2013-02-19 20:20:00,41.4,16.0,30.05,NNW,337,12.0,17.0,36,0.00,,,0.02,weatherlink.com 1.10,2013-02-20 01:20:00,
2013-02-19 20:35:00,41.0,16.0,30.06,North,11,12.0,22.0,36,0.00,,,0.02,weatherlink.com 1.10,2013-02-20 01:35:00,
2013-02-19 20:50:00,40.6,16.0,30.07,NNE,13,4.0,15.0,37,0.00,,,0.02,weatherlink.com 1.10,2013-02-20 01:50:00,
2013-02-19 21:05:00,39.9,15.0,30.07,North,8,12.0,16.0,37,0.00,,,0.02,weatherlink.com 1.10,2013-02-20 02:05:00,
2013-02-19 21:20:00,39.4,16.0,30.07,NNE,13,7.0,15.0,39,0.00,,,0.02,weatherlink.com 1.10,2013-02-20 02:20:00,
2013-02-19 21:35:00,39.1,16.0,30.08,North,349,5.0,15.0,39,0.00,,,0.02,weatherlink.com 1.10,2013-02-20 02:35:00,
2013-02-19 21:50:00,38.8,16.0,30.08,North,4,4.0,21.0,40,0.00,,,0.02,weatherlink.com 1.10,2013-02-20 02:50:00,
2013-02-19 22:05:00,38.4,16.0,30.08,NNW,333,11.0,18.0,40,0.00,,,0.02,weatherlink.com 1.10,2013-02-20 03:05:00,
2013-02-19 22:20:00,38.0,17.0,30.08,NW,315,12.0,16.0,42,0.00,,,0.02,weatherlink.com 1.10,2013-02-20 03:20:00,
2013-02-19 22:35:00,37.6,17.0,30.08,NNW,332,6.0,17.0,43,0.00,,,0.02,weatherlink.com 1.10,2013-02-20 03:35:00,
2013-02-19 22:50:00,37.1,17.0,30.09,NW,322,10.0,14.0,44,0.00,,,0.02,weatherlink.com 1.10,2013-02-20 03:50:00,
2013-02-19 23:05:00,36.5,16.0,30.09,NNW,339,5.0,16.0,44,0.00,,,0.02,weatherlink.com 1.10,2013-02-20 04:05:00,
2013-02-19 23:20:00,36.1,16.0,30.09,NNW,345,8.0,19.0,45,0.00,,,0.02,weatherlink.com 1.10,2013-02-20 04:20:00,
2013-02-19 23:35:00,35.3,17.0,30.09,NNW,335,8.0,17.0,48,0.00,,,0.02,weatherlink.com 1.10,2013-02-20 04:35:00,
2013-02-19 23:50:00,34.7,18.0,30.10,North,353,12.0,14.0,51,0.00,,,0.02,weatherlink.com 1.10,2013-02-20 04:50:00,